This is the latest recevied weather packets stored in our database for station/object WP3OF-1. If no packets are shown the sender has not sent any weather packets the latest 10 day(s).
| Time | Temp. | Humidity | Pressure | Rain* | Wind** | Luminosity | Snow |
|---|---|---|---|---|---|---|---|
| 1777844203 | 27.22° C | 77% | 1016.2 hPa | 0 mm | - | - | - |
| 1777843899 | 27.22° C | 76% | 1016.1 hPa | 0 mm | - | - | - |
| 1777843597 | 27.22° C | 77% | 1015.9 hPa | 0 mm | - | - | - |
| 1777843294 | 27.22° C | 76% | 1015.9 hPa | 0 mm | - | - | - |
| 1777842992 | 27.22° C | 76% | 1015.9 hPa | 0 mm | - | - | - |
| 1777842687 | 27.22° C | 76% | 1016.1 hPa | 0 mm | - | - | - |
| 1777842384 | 27.78° C | 75% | 1016.2 hPa | 0 mm | - | - | - |
| 1777842080 | 27.22° C | 75% | 1015.9 hPa | 0 mm | - | - | - |
| 1777841776 | 27.22° C | 75% | 1015.7 hPa | 0 mm | - | - | - |
| 1777841473 | 27.78° C | 75% | 1016.3 hPa | 0 mm | - | - | - |
| 1777841170 | 27.78° C | 74% | 1016.2 hPa | 0 mm | - | - | - |
| 1777840867 | 27.78° C | 74% | 1016.2 hPa | 0 mm | - | - | - |
| 1777840564 | 27.78° C | 74% | 1016.2 hPa | 0 mm | - | - | - |
| 1777840261 | 27.78° C | 73% | 1015.8 hPa | 0 mm | - | - | - |
| 1777839959 | 27.78° C | 73% | 1016.1 hPa | 0 mm | - | - | - |
| 1777839656 | 27.78° C | 70% | 1016.2 hPa | 0 mm | - | - | - |
| 1777839354 | 28.33° C | 71% | 1016.2 hPa | 0 mm | - | - | - |
| 1777839051 | 27.78° C | 72% | 1016.1 hPa | 0 mm | - | - | - |
| 1777838747 | 27.78° C | 70% | 1015.9 hPa | 0 mm | - | - | - |
| 1777838444 | 28.33° C | 71% | 1016.2 hPa | 0 mm | - | - | - |
| 1777838141 | 28.33° C | 71% | 1016.3 hPa | 0 mm | - | - | - |
| 1777837838 | 28.33° C | 68% | 1016.5 hPa | 0 mm | - | - | - |
| 1777837535 | 28.33° C | 71% | 1016.2 hPa | 0 mm | - | - | - |
| 1777837235 | 28.33° C | 70% | 1016.5 hPa | 0 mm | - | - | - |
| 1777836932 | 28.33° C | 71% | 1016.8 hPa | 0 mm | - | - | - |
* Rain latest hour (hover to see other rain measurements)
** Current wind speed in m/s (hover to see current wind gust speed)